User: anonymous   Login
Location: Unspecified
(0.0000°N, 0.0000°E)
Time: 12:30:35
(UTC+00:00)
Language:

COSMOS 2406 - Orbit

View from above orbital plane
View from above orbital plane
View from above satellite
View from above satellite

Ground track
Ground track

The orbit data is extracted from the following two-line orbital elements,

1 28352U 04021A   18020.93512685 -.00000206 +00000-0 -87179-4 0  9993
2 28352 071.0055 030.0368 0012972 145.7099 214.4862 14.11649140701530
Epoch (UTC): 20 January 2018 22:26:34
Eccentricity: 0.0012972
inclination: 71.0055°
perigee height: 844 km
apogee height: 863 km
right ascension of ascending node: 30.0368°
argument of perigee: 145.7099°
revolutions per day: 14.11649140
mean anomaly at epoch: 214.4862°
orbit number at epoch: 70153

The dashed part of the orbit path shows where the satellite is in the earth's shadow,  

DLR